{"data":{"norad_id":59221,"epoch":"2026-09-20T21:42:38.803392Z","epoch_age_seconds":123848,"freshness":"FRESH","line1":"1 59221U 24046W   26263.90461578 -.00000173  00000+0  60299-5 0  9996","line2":"2 59221  53.1614 323.9187 0001339  75.7254 284.3897 15.34392132142999","mean_motion":15.34392132,"eccentricity":0.0001339,"inclination_deg":53.1614,"raan_deg":323.9187,"arg_perigee_deg":75.7254,"mean_anomaly_deg":284.3897,"bstar":6.0299e-6,"rev_number":14299,"period_min":93.848239310445,"perigee_km":461.81063402166,"apogee_km":463.64261730062,"semimajor_km":6840.8636256611,"source":"CELESTRAK","updated_at":"2026-09-21T09:00:34.072940Z"}}